Tracking 19854 objects as of 23-Sep-2019
HD Live streaming from Space Station
objects crossing your sky now

COSMOS 1633

Track COSMOS 1633 now!
10-day predictions
COSMOS 1633 is classified as:


NORAD ID: 15592
Int'l Code: 1985-020A
Perigee: 471.6 km
Apogee: 491.4 km
Inclination: 82.5 °
Period: 94.1 minutes
Semi major axis: 6852 km
RCS: 7.2924 m2 (large)
Launch date: March 5, 1985
Source: Commonwealth of Independent States (former USSR) (CIS)
Launch site: PLESETSK MISSILE AND SPACE COMPLEX (PKMTR)
aabbcc
Your satellite tracking list
Your tracking list is empty




NASA's NSSDC Master Catalog

Two Line Element Set (TLE):
1 15592U 85020A   19264.87463654  .00000850  00000-0  27496-4 0  9997
2 15592  82.5394 209.5940 0014391 123.8273 236.4340 15.30485090890664
Source of the keplerian elements: AFSPC